GSAT0210 (GALILEO 13)

Last updated on Sun Sep 14 2025 00:02:35 GMT+0000 (Coordinated Universal Time)

1 41550U 16030B 25255.59927635 .00000040 00000+0 00000+0 0 9992 2 41550 55.1877 229.3258 0004011 246.1991 113.7303 1.70473461 57934
UTC large
Height (km)
Speed (km/s)
/
Latitude / Longitude
Inclination (degrees)
Orbital Period (minutes)
Azimuth
Elevation
Range (km)
Doppler Factor

Next 0 passes for location: London (51.5072 / 0.1276)

Sorry there are no passes over London.